time_stamp(utc),avg(mph),gust(mph),direction(deg),12m_air_temp(f),sonic_u(cm/s),sonic_v(cm/s),sonic_w(cm/s),pressure,2m_air_temp(f),pyranometer(W/m^2)
"2022-02-04 00:00:18+00",6.7,8.7,,,-85,-266,4,1019.4,43.6,0
"2022-02-04 00:05:18+00",7.7,8.7,,,-110,-318,0,1019.38,43.5,0
"2022-02-04 00:10:18+00",9.6,11.6,,,-166,-389,6,1019.49,43.7,0
"2022-02-04 00:15:18+00",10.1,12.1,,,-99,-421,-11,1019.48,43.6,0
"2022-02-04 00:20:18+00",10.0,13.0,,,-96,-421,9,1019.38,43.7,0
"2022-02-04 00:25:18+00",11.0,15.0,,,-95,-451,-6,1019.4,43.9,0
"2022-02-04 00:30:18+00",11.5,14.5,,,-117,-495,5,1019.33,44.4,0
"2022-02-04 00:35:18+00",11.9,14.9,,,-107,-488,-2,1019.37,44.6,0
"2022-02-04 00:40:18+00",12.3,15.3,,,-120,-533,-4,1019.23,45,0
"2022-02-04 00:45:18+00",12.5,15.5,,,-94,-526,-18,1018.95,45.4,0
"2022-02-04 00:50:18+00",12.9,16.9,,,-80,-576,-18,1018.98,45.7,0
"2022-02-04 00:55:18+00",12.2,15.2,,,-101,-504,8,1018.91,45.7,0
"2022-02-04 01:00:18+00",11.7,14.7,,,-124,-482,1,1018.9,45.6,0
"2022-02-04 01:05:18+00",11.7,13.7,,,-132,-483,-5,1018.89,45.5,0
"2022-02-04 01:10:18+00",11.4,14.4,,,-152,-472,-2,1018.87,45.4,0
"2022-02-04 01:15:18+00",13.5,15.5,,,-178,-559,-2,1018.94,45.5,0
"2022-02-04 01:20:18+00",14.1,17.1,,,-168,-597,-7,1018.95,45.4,0
"2022-02-04 01:25:18+00",12.2,13.2,,,-166,-509,-2,1018.99,45.2,0
"2022-02-04 01:30:18+00",12.2,14.2,,,-191,-501,7,1018.95,45.1,0
"2022-02-04 01:35:18+00",12.5,14.5,,,-181,-517,3,1018.82,45.1,0
"2022-02-04 01:40:18+00",13.5,14.5,,,-196,-560,-14,1018.82,45.2,0
"2022-02-04 01:45:18+00",13.1,15.1,,,-163,-557,-4,1018.72,45.4,0
"2022-02-04 01:50:18+00",13.9,16.9,,,-152,-576,-10,1018.62,45.5,0
"2022-02-04 01:55:18+00",14.2,17.2,,,-158,-593,-3,1018.35,45.7,0
"2022-02-04 02:00:18+00",15.1,19.1,,,-135,-646,-4,1018.14,45.8,0
"2022-02-04 02:05:18+00",14.3,20.3,,,-138,-614,-3,1018.27,46.1,0
"2022-02-04 02:10:18+00",16.2,18.2,,,-234,-678,-9,1018.07,46.2,0
"2022-02-04 02:15:18+00",14.4,18.4,,,-148,-621,6,1017.88,46.2,0
"2022-02-04 02:20:18+00",13.7,16.7,,,-102,-591,-3,1017.77,46,0
"2022-02-04 02:25:18+00",14.8,21.8,,,-136,-659,-5,1017.58,46.2,0
"2022-02-04 02:30:18+00",18.0,21.0,,,-234,-743,-5,1017.48,46.8,0
"2022-02-04 02:35:18+00",18.4,21.4,,,-264,-766,-4,1017.55,46.9,0
"2022-02-04 02:40:18+00",17.3,20.3,,,-222,-726,-3,1017.39,46.9,0
"2022-02-04 02:45:18+00",19.0,22.0,,,-243,-793,13,1017.27,47.3,0
"2022-02-04 02:50:18+00",18.4,21.4,,,-269,-769,-7,1017.28,47.1,0
"2022-02-04 02:55:18+00",17.3,21.3,,,-325,-690,0,1017.37,47,0
"2022-02-04 03:00:18+00",18.9,21.9,,,-299,-777,-3,1017.31,47.2,0
"2022-02-04 03:05:18+00",18.6,20.6,,,-339,-753,20,1017.35,47.5,0
"2022-02-04 03:10:18+00",17.8,22.8,,,-347,-722,14,1017.39,47.3,0
"2022-02-04 03:15:18+00",18.4,22.4,,,-355,-737,0,1017.25,47.2,0
"2022-02-04 03:20:18+00",17.1,19.1,,,-322,-684,0,1017.21,47,0
"2022-02-04 03:25:18+00",18.7,20.7,,,-288,-757,0,1017.03,47.1,0
"2022-02-04 03:30:18+00",16.7,21.7,,,-204,-698,4,1016.92,47.2,0
"2022-02-04 03:35:18+00",17.2,21.2,,,-220,-722,9,1017,47,0
"2022-02-04 03:40:18+00",20.2,23.2,,,-280,-821,-16,1017.08,46.9,0
"2022-02-04 03:45:18+00",18.4,22.4,,,-262,-770,-4,1017.12,46.9,0
"2022-02-04 03:50:18+00",17.6,20.6,,,-292,-737,10,1017.14,46.9,0
"2022-02-04 03:55:18+00",17.7,21.7,,,-287,-717,20,1017.14,47,0
"2022-02-04 04:00:18+00",17.9,20.9,,,-322,-725,3,1017.24,46.8,0
"2022-02-04 04:05:18+00",19.8,22.8,,,-288,-824,-12,1017.06,46.7,0
"2022-02-04 04:10:18+00",18.8,21.8,,,-267,-770,7,1016.98,46.8,0
"2022-02-04 04:15:18+00",17.5,19.5,,,-265,-726,7,1016.89,46.7,0
"2022-02-04 04:20:18+00",17.1,22.1,,,-296,-701,9,1016.84,46.7,0
"2022-02-04 04:25:18+00",19.7,21.7,,,-287,-812,-5,1016.74,46.9,0
"2022-02-04 04:30:18+00",18.7,22.7,,,-328,-760,6,1016.88,46.7,0
"2022-02-04 04:35:18+00",18.2,20.2,,,-348,-713,-4,1016.99,46,0
"2022-02-04 04:40:18+00",18.6,22.6,,,-300,-761,11,1016.67,45.9,0
"2022-02-04 04:45:18+00",19.0,21.0,,,-268,-780,5,1016.72,46.2,0
"2022-02-04 04:50:18+00",19.2,24.2,,,-317,-770,10,1016.72,46.7,0
"2022-02-04 04:55:18+00",21.5,25.5,,,-279,-891,-7,1016.61,47,0
"2022-02-04 05:00:18+00",23.2,29.2,,,-293,-961,0,1016.41,47.4,0
"2022-02-04 05:05:18+00",24.7,30.7,,,-328,-1020,-18,1016.36,47.9,0
"2022-02-04 05:10:18+00",21.3,27.3,,,-309,-889,11,1016.36,48.1,0
"2022-02-04 05:15:18+00",22.6,26.6,,,-345,-919,17,1016.14,48,0
"2022-02-04 05:20:18+00",23.6,27.6,,,-382,-987,-15,1016.26,47.8,0
"2022-02-04 05:25:18+00",21.7,25.7,,,-371,-887,10,1016.11,47.5,0
"2022-02-04 05:30:18+00",25.1,27.1,,,-345,-1041,-16,1015.96,47.5,0
"2022-02-04 05:35:18+00",22.2,25.2,,,-316,-921,-4,1015.96,47.5,0
"2022-02-04 05:40:18+00",23.3,26.3,,,-325,-966,-10,1016.11,47.2,0
"2022-02-04 05:45:18+00",22.6,26.6,,,-291,-940,-2,1015.94,47.4,0
"2022-02-04 05:50:18+00",23.5,31.5,,,-271,-946,-21,1015.79,47.7,0
"2022-02-04 05:55:18+00",20.0,24.0,,,-251,-849,-6,1015.78,47.4,0
"2022-02-04 06:00:18+00",22.0,27.0,,,-221,-914,2,1015.66,47.5,0
"2022-02-04 06:05:18+00",21.3,24.3,,,-347,-903,47,1015.57,47.6,0
"2022-02-04 06:10:18+00",19.7,23.7,,,-235,-834,46,1015.41,47.4,0
"2022-02-04 06:15:18+00",18.2,22.2,,,-147,-759,16,1015.29,47.1,0
"2022-02-04 06:20:18+00",21.6,26.6,,,-243,-894,24,1015.3,46.9,0
"2022-02-04 06:25:18+00",19.3,24.3,,,-182,-806,-4,1015.26,46.6,0
"2022-02-04 06:30:18+00",21.9,27.9,,,-246,-896,12,1015.19,46.5,0
"2022-02-04 06:35:18+00",19.5,23.5,,,-191,-817,4,1015.1,46.6,0
"2022-02-04 06:40:18+00",19.8,27.8,,,-217,-876,-14,1014.78,46.5,0
"2022-02-04 06:45:18+00",20.5,25.5,,,-203,-916,-26,1014.66,46.4,0
"2022-02-04 06:50:18+00",17.2,24.2,,,-162,-734,13,1014.72,46.3,0
"2022-02-04 06:55:18+00",20.1,24.1,,,-208,-823,16,1014.58,46.1,0
"2022-02-04 07:00:18+00",22.1,25.1,,,-214,-933,-13,1014.54,46.1,0
"2022-02-04 07:05:18+00",20.6,24.6,,,-234,-859,1,1014.46,46.1,0
"2022-02-04 07:10:18+00",20.3,27.3,,,-263,-932,-39,1014.47,46.6,0
"2022-02-04 07:15:18+00",20.1,24.1,,,-275,-839,29,1014.36,47,0
"2022-02-04 07:20:18+00",24.9,27.9,,,-348,-1005,1,1014.48,47.5,0
"2022-02-04 07:25:18+00",24.6,29.6,,,-536,-1237,-170,1014.36,47.9,0
"2022-02-04 07:30:18+00",20.8,26.8,,,-305,-925,-45,1014.08,48,0
"2022-02-04 07:35:18+00",19.8,26.8,,,-219,-800,62,1013.88,48.3,0
"2022-02-04 07:40:18+00",20.0,26.0,,,-254,-895,-56,1013.9,48.4,0
"2022-02-04 07:45:18+00",23.7,26.7,,,-346,-971,-1,1013.82,48.6,0
"2022-02-04 07:50:18+00",22.0,27.0,,,-235,-921,6,1013.49,48.8,0
"2022-02-04 07:55:18+00",19.8,26.8,,,-221,-873,-14,1013.37,48.2,0
"2022-02-04 08:00:18+00",21.0,28.0,,,-204,-902,22,1013.37,47.5,0
"2022-02-04 08:05:18+00",20.6,26.6,,,-276,-878,13,1013.51,46.8,0
"2022-02-04 08:10:18+00",21.8,26.8,,,-308,-884,-8,1013.43,46.5,0
"2022-02-04 08:15:18+00",22.3,28.3,,,-389,-901,6,1013.4,46.8,0
"2022-02-04 08:20:18+00",21.0,26.0,,,-322,-837,10,1013.26,47.2,0
"2022-02-04 08:25:18+00",24.4,26.4,,,-378,-984,1,1013.18,47.9,0
"2022-02-04 08:30:18+00",24.1,29.1,,,-563,-1395,-266,1013.05,48.3,0
"2022-02-04 08:35:18+00",24.5,27.5,,,-367,-1002,-3,1013.04,48.6,0
"2022-02-04 08:40:18+00",26.0,30.0,,,-497,-1093,-30,1012.93,48.8,0
"2022-02-04 08:45:18+00",26.2,30.2,,,-1155,-2202,-812,1012.94,49,0
"2022-02-04 08:50:18+00",24.2,30.2,,,-720,-1596,-397,1012.72,49.3,0
"2022-02-04 08:55:18+00",23.8,27.8,,,-371,-965,12,1012.59,49.4,0
"2022-02-04 09:00:18+00",22.7,26.7,,,-307,-925,21,1012.48,49,0
"2022-02-04 09:05:18+00",20.8,23.8,,,-294,-837,8,1012.44,48.8,0
"2022-02-04 09:10:18+00",20.8,28.8,,,-286,-897,3,1012.24,48.7,0
"2022-02-04 09:15:18+00",20.2,27.2,,,-235,-806,3,1012.12,48.3,0
"2022-02-04 09:20:18+00",23.2,28.2,,,-418,-1079,-85,1012.25,48.6,0
"2022-02-04 09:25:18+00",21.5,27.5,,,-420,-1075,-121,1012.07,48.6,0
"2022-02-04 09:30:18+00",22.4,26.4,,,-381,-909,14,1012.16,48.6,0
"2022-02-04 09:35:18+00",26.1,30.1,,,-441,-1061,-2,1012.09,49,0
"2022-02-04 09:40:18+00",25.6,32.6,,,-462,-1055,3,1012.11,49.1,0
"2022-02-04 09:45:18+00",23.5,30.5,,,-486,-1276,-210,1011.65,49.4,0
"2022-02-04 09:50:18+00",25.3,30.3,,,-360,-1054,4,1011.8,49.7,0
"2022-02-04 09:55:18+00",25.7,31.7,,,-432,-1196,-80,1012.01,49.4,0
"2022-02-04 10:00:18+00",24.6,28.6,,,-402,-1141,-74,1011.65,49.4,0
"2022-02-04 10:05:18+00",20.8,24.8,,,-222,-863,-8,1011.62,49.4,0
"2022-02-04 10:10:18+00",20.0,25.0,,,-216,-855,-24,1011.29,49.2,0
"2022-02-04 10:15:18+00",19.4,25.4,,,-151,-813,15,1011.08,49,0
"2022-02-04 10:20:18+00",16.8,21.8,,,-206,-724,19,1011.15,48.4,0
"2022-02-04 10:25:18+00",18.7,24.7,,,-192,-806,3,1011.15,48.2,0
"2022-02-04 10:30:18+00",19.2,25.2,,,-177,-824,-17,1011.07,48.1,0
"2022-02-04 10:35:18+00",18.0,23.0,,,-170,-759,-17,1011.03,47.9,0
"2022-02-04 10:40:18+00",20.1,23.1,,,-352,-798,4,1011.38,47.5,0
"2022-02-04 10:45:18+00",19.7,22.7,,,-280,-825,-15,1011.24,47.4,0
"2022-02-04 10:50:18+00",19.5,23.5,,,-323,-775,14,1011.31,47.8,0
"2022-02-04 10:55:18+00",20.4,25.4,,,-341,-821,-14,1011.27,48.2,0
"2022-02-04 11:00:18+00",23.9,27.9,,,-458,-923,15,1011.19,48.6,0
"2022-02-04 11:05:18+00",22.2,25.2,,,-472,-959,-32,1011.24,48.4,0
"2022-02-04 11:10:18+00",22.0,27.0,,,-414,-895,-5,1011.14,48.5,0
"2022-02-04 11:15:18+00",24.9,32.9,,,-534,-1104,-61,1011.07,49.5,0
"2022-02-04 11:20:18+00",24.5,31.5,,,-554,-974,1,1011.16,49.9,0
"2022-02-04 11:25:18+00",23.6,29.6,,,-535,-960,43,1011.02,50.2,0
"2022-02-04 11:30:18+00",29.0,37.0,,,-720,-1324,-83,1010.87,51,0
"2022-02-04 11:35:18+00",23.2,28.2,,,-486,-897,11,1010.91,50.5,0
"2022-02-04 11:40:18+00",20.7,28.7,,,-511,-795,20,1011.11,49.7,0
"2022-02-04 11:45:18+00",22.8,26.8,,,-473,-893,15,1010.97,50,0
"2022-02-04 11:50:18+00",24.8,30.8,,,-551,-970,11,1010.94,50.2,0
"2022-02-04 11:55:18+00",23.5,26.5,,,-519,-908,7,1010.83,50.5,0
"2022-02-04 12:00:18+00",23.8,29.8,,,-450,-948,17,1010.91,50.2,0
"2022-02-04 12:05:18+00",23.2,27.2,,,-442,-923,12,1010.85,50,0
"2022-02-04 12:10:18+00",27.1,32.1,,,-566,-1079,3,1010.78,50.2,0
"2022-02-04 12:15:18+00",28.7,32.7,,,-554,-1169,-3,1010.58,50.2,0
"2022-02-04 12:20:18+00",29.8,42.8,,,-567,-1165,8,1010.6,50.4,0
"2022-02-04 12:25:18+00",27.5,31.5,,,-519,-1094,30,1010.58,50.3,0
"2022-02-04 12:30:18+00",28.1,34.1,,,-545,-1099,22,1010.66,50.5,0
"2022-02-04 12:35:18+00",26.9,30.9,,,-562,-1072,31,1010.6,50.6,0
"2022-02-04 12:40:18+00",27.0,32.0,,,-567,-1072,40,1010.56,50.5,0
"2022-02-04 12:45:18+00",28.4,32.4,,,-645,-1104,32,1010.65,50.6,0
"2022-02-04 12:50:18+00",24.3,28.3,,,-645,-908,36,1010.74,50.4,0
"2022-02-04 12:55:18+00",25.7,31.7,,,-526,-1015,67,1010.59,50.6,0
"2022-02-04 13:00:18+00",31.2,37.2,,,-480,-1139,87,1010.45,50.8,0
"2022-02-04 13:05:18+00",30.3,36.3,,,-408,-1066,118,1010.27,50.8,0
"2022-02-04 13:10:18+00",30.5,33.5,,,-426,-1107,80,1010.37,50.8,0
"2022-02-04 13:15:18+00",28.1,34.1,,,-423,-1150,12,1010.3,50.6,0
"2022-02-04 13:20:18+00",29.7,34.7,,,-441,-1234,-28,1010.31,50.5,0
"2022-02-04 13:25:18+00",28.5,34.5,,,-439,-1200,-6,1010.19,50.5,3.9
"2022-02-04 13:30:18+00",31.2,39.2,,,-376,-1273,24,1010.24,50.4,10.7
"2022-02-04 13:35:18+00",27.3,30.3,,,-409,-1098,36,1010.3,50,1.9
"2022-02-04 13:40:18+00",30.1,35.1,,,-459,-1187,6,1010.41,49.9,1
"2022-02-04 13:45:18+00",25.7,30.7,,,-434,-1042,24,1010.35,49.7,0
"2022-02-04 13:50:18+00",28.7,34.7,,,-484,-1143,29,1010.39,49.6,0
"2022-02-04 13:55:18+00",28.5,32.5,,,-532,-1131,18,1010.3,49.6,0
"2022-02-04 14:00:18+00",24.4,30.4,,,-472,-978,20,1010.44,49.2,0
"2022-02-04 14:05:18+00",28.2,33.2,,,-581,-1168,-4,1010.51,49.3,0
"2022-02-04 14:10:18+00",31.4,37.4,,,-694,-1449,-115,1010.31,49.4,0
"2022-02-04 14:15:18+00",28.5,33.5,,,-849,-961,27,1010.82,49.4,0
"2022-02-04 14:20:18+00",24.5,27.5,,,-725,-881,14,1010.73,49.4,0
"2022-02-04 14:25:18+00",22.5,26.5,,,-465,-876,14,1010.56,49.1,0
"2022-02-04 14:30:18+00",22.3,25.3,,,-520,-869,16,1010.52,49.4,0
"2022-02-04 14:35:18+00",20.3,22.3,,,-524,-751,28,1010.71,49.1,0
"2022-02-04 14:40:18+00",22.0,26.0,,,-552,-846,24,1010.62,49,0
"2022-02-04 14:45:18+00",24.6,27.6,,,-628,-928,15,1010.63,48.8,0
"2022-02-04 14:50:18+00",23.1,28.1,,,-547,-904,18,1010.51,48.7,0
"2022-02-04 14:55:18+00",21.6,24.6,,,-483,-856,21,1010.43,48.8,0
"2022-02-04 15:00:18+00",22.5,27.5,,,-469,-970,-15,1010.38,49.1,0.1
"2022-02-04 15:05:18+00",23.5,27.5,,,-411,-946,14,1010.38,48.9,0
"2022-02-04 15:10:18+00",23.7,26.7,,,-458,-956,7,1010.34,48.9,0.6
"2022-02-04 15:15:18+00",25.1,27.1,,,-484,-991,12,1010.31,48.8,0
"2022-02-04 15:20:18+00",25.7,28.7,,,-859,-1619,-378,1010.26,48.9,0
"2022-02-04 15:25:18+00",26.2,29.2,,,-564,-1079,23,1010.33,48.9,0
"2022-02-04 15:30:18+00",27.9,30.9,,,-798,-1575,-303,1010.24,48.8,0
"2022-02-04 15:35:18+00",26.0,30.0,,,-707,-1476,-286,1010.19,48.9,0
"2022-02-04 15:40:18+00",23.9,27.9,,,-497,-944,21,1010.12,49.1,0
"2022-02-04 15:45:18+00",23.6,27.6,,,-480,-919,28,1010.21,49.4,0
"2022-02-04 15:50:18+00",21.9,23.9,,,-627,-736,32,1010.36,49.2,0
"2022-02-04 15:55:18+00",22.5,26.5,,,-944,-144,85,1010.86,47.8,0
"2022-02-04 16:00:18+00",28.4,31.4,,,-1118,-941,-98,1010.72,48.1,0
"2022-02-04 16:05:18+00",24.6,27.6,,,-1046,-311,89,1010.87,48.3,0
"2022-02-04 16:10:18+00",27.0,32.0,,,-1053,-471,123,1010.73,48.7,0
"2022-02-04 16:15:18+00",26.3,31.3,,,-1146,-489,-50,1010.73,48.5,0
"2022-02-04 16:20:18+00",27.1,30.1,,,-1107,-869,-55,1010.63,48.5,0
"2022-02-04 16:25:18+00",29.9,32.9,,,-1092,-903,-42,1010.52,48.7,0
"2022-02-04 16:30:18+00",29.0,32.0,,,-994,-800,52,1010.48,48.9,0
"2022-02-04 16:35:18+00",31.0,34.0,,,-1089,-904,-11,1010.56,49.1,0
"2022-02-04 16:40:18+00",27.3,33.3,,,-896,-803,25,1010.52,48.8,0
"2022-02-04 16:45:18+00",21.2,23.2,,,-817,-559,33,1010.45,48,0.1
"2022-02-04 16:50:18+00",21.7,23.7,,,-946,-440,1,1010.43,48.2,0
"2022-02-04 16:55:18+00",17.5,21.5,,,-711,-283,56,1010.29,48.1,0
"2022-02-04 17:00:18+00",11.3,13.3,,,-487,-5,19,1010.26,47.8,0
"2022-02-04 17:05:18+00",10.4,14.4,,,139,437,4,1010.15,47.2,0.5
"2022-02-04 17:10:18+00",16.1,18.1,,,305,641,-2,1010.08,45.3,0.7
"2022-02-04 17:15:18+00",16.7,19.7,,,453,568,1,1009.96,44.5,0.9
"2022-02-04 17:20:18+00",17.5,19.5,,,485,578,5,1009.82,43.9,0
"2022-02-04 17:25:18+00",18.6,20.6,,,564,573,19,1009.65,43.5,6.1
"2022-02-04 17:30:18+00",17.4,19.4,,,566,527,44,1009.28,43.4,19.3
"2022-02-04 17:35:18+00",17.2,19.2,,,558,514,30,1009.19,43.2,0
"2022-02-04 17:40:18+00",14.0,16.0,,,492,403,43,1009.16,43,0
"2022-02-04 17:45:18+00",14.0,16.0,,,515,356,29,1008.93,43.1,1.5
"2022-02-04 17:50:18+00",11.6,13.6,,,459,250,29,1008.69,43.4,1
"2022-02-04 17:55:18+00",9.4,10.4,,,348,232,21,1008.7,43.6,0
"2022-02-04 18:00:18+00",11.9,12.9,,,467,256,20,1008.54,43.6,0.2
"2022-02-04 18:05:18+00",9.3,11.3,,,379,186,22,1008.33,43.8,0.9
"2022-02-04 18:10:18+00",10.0,12.0,,,404,170,22,1008.28,44,0.6
"2022-02-04 18:15:18+00",8.7,9.7,,,366,155,25,1008.26,44.1,0.5
"2022-02-04 18:20:18+00",6.9,7.9,,,290,126,18,1008.17,44.1,0
"2022-02-04 18:25:18+00",6.1,6.1,,,213,158,11,1008.29,44.2,0
"2022-02-04 18:30:18+00",5.9,6.9,,,207,152,5,1008.29,44.1,0
"2022-02-04 18:35:18+00",4.7,4.7,,,185,89,14,1008.04,44,0
"2022-02-04 18:40:18+00",3.5,4.5,,,121,80,-7,1008.16,44.1,0
"2022-02-04 18:45:18+00",3.3,4.3,,,128,54,-6,1008.29,44.3,0
"2022-02-04 18:50:18+00",17.8,23.8,,,-263,731,30,1009.39,43.7,0
"2022-02-04 18:55:18+00",9.4,11.4,,,14,386,1,1008.89,43,0
"2022-02-04 19:00:18+00",12.3,14.3,,,-188,494,20,1009.49,43.5,0
"2022-02-04 19:05:18+00",11.2,12.2,,,146,460,-4,1009.04,43.9,0
"2022-02-04 19:10:18+00",9.3,10.3,,,252,296,8,1008.89,44.1,0.4
"2022-02-04 19:15:18+00",10.3,11.3,,,241,360,6,1009.01,44.2,0
"2022-02-04 19:20:18+00",8.2,10.2,,,267,237,23,1008.91,44.2,0
"2022-02-04 19:25:18+00",10.9,12.9,,,250,396,-1,1008.93,44.1,0
"2022-02-04 19:30:18+00",13.2,14.2,,,436,386,10,1008.69,43.8,0
"2022-02-04 19:35:18+00",16.3,17.3,,,562,476,40,1008.42,43.2,0.1
"2022-02-04 19:40:18+00",12.3,14.3,,,434,341,32,1008.71,42.7,1.6
"2022-02-04 19:45:18+00",12.2,14.2,,,390,368,16,1008.76,42.4,0
"2022-02-04 19:50:18+00",12.6,13.6,,,442,353,19,1008.86,41.9,0
"2022-02-04 19:55:18+00",12.2,14.2,,,345,388,15,1008.99,41.6,0
"2022-02-04 20:00:18+00",10.0,12.0,,,84,409,4,1009.52,41.6,0
"2022-02-04 20:05:18+00",9.8,11.8,,,152,399,-2,1009.6,41.7,0
"2022-02-04 20:10:18+00",11.3,12.3,,,287,386,-4,1009.38,41.6,0
"2022-02-04 20:15:18+00",12.9,16.9,,,259,491,17,1009.36,41.5,0
"2022-02-04 20:20:18+00",11.5,13.5,,,64,494,-6,1009.49,41.4,0
"2022-02-04 20:25:18+00",16.7,17.7,,,-159,730,1,1009.54,41.6,0
"2022-02-04 20:30:18+00",15.6,18.6,,,-124,654,34,1009.53,41.1,0
"2022-02-04 20:35:18+00",16.2,18.2,,40.7,-28928,11079,24832,1009.59,-29.7,-1356.9
"2022-02-04 20:40:18+00",19.0,21.0,,,-378,726,40,1009.95,40.4,0
"2022-02-04 20:45:18+00",19.6,21.6,,,-352,796,46,1009.99,40,0
"2022-02-04 20:50:18+00",17.1,21.1,,,-299,652,60,1010.07,39.5,0
"2022-02-04 20:55:18+00",22.1,25.1,,,-306,938,34,1009.99,39.3,0
"2022-02-04 21:00:18+00",20.6,22.6,,,-283,853,19,1010.23,39,0
"2022-02-04 21:05:18+00",20.8,22.8,,,-251,890,7,1010.44,38.9,0
"2022-02-04 21:10:18+00",15.0,18.0,,,-52,668,9,1010.32,38.9,0
"2022-02-04 21:15:18+00",16.1,18.1,,,-254,649,48,1010.86,38.8,0
"2022-02-04 21:20:18+00",16.9,18.9,,,-270,718,25,1011.27,38.7,0
"2022-02-04 21:25:18+00",12.6,14.6,,,-116,546,17,1011.03,38.7,0
"2022-02-04 21:30:18+00",10.8,11.8,,,12,484,8,1010.78,38.7,0
"2022-02-04 21:35:18+00",10.7,11.7,,,34,469,2,1010.56,38.8,0
"2022-02-04 21:40:18+00",12.0,14.0,,,100,525,-6,1010.29,38.7,0
"2022-02-04 21:45:18+00",14.5,15.5,,,-123,622,18,1010.76,38.7,0
"2022-02-04 21:50:18+00",15.1,17.1,,,-220,631,25,1010.65,38.7,0
"2022-02-04 21:55:18+00",17.5,19.5,,,-284,703,29,1010.93,38.6,0
"2022-02-04 22:00:18+00",15.3,17.3,,,-164,654,15,1010.76,38.6,0
"2022-02-04 22:05:18+00",10.8,12.8,,,-100,454,25,1010.94,38.6,0
"2022-02-04 22:10:18+00",15.3,18.3,,,-157,659,15,1010.94,38.6,0
"2022-02-04 22:15:18+00",17.9,19.9,,,-423,653,50,1012.04,38.4,0
"2022-02-04 22:20:18+00",17.9,19.9,,,-470,624,52,1012.39,38.4,0
"2022-02-04 22:25:18+00",12.8,13.8,,,-292,474,40,1012.4,38.5,0
"2022-02-04 22:30:18+00",9.2,11.2,,,-259,309,27,1012.52,38.5,0
"2022-02-04 22:35:18+00",13.9,15.9,,,-410,448,39,1012.84,38.5,0
"2022-02-04 22:40:18+00",18.4,21.4,,,-459,675,24,1012.74,38.3,0
"2022-02-04 22:45:18+00",11.8,12.8,,,-168,487,21,1012.22,38.2,0
"2022-02-04 22:50:18+00",11.8,12.8,,,-135,512,12,1012.15,38.1,0
"2022-02-04 22:55:18+00",14.2,15.2,,,-180,585,10,1012.42,38.1,0
"2022-02-04 23:00:18+00",11.9,13.9,,,-206,469,29,1012.88,38.2,0
"2022-02-04 23:05:18+00",9.8,11.8,,,-91,422,27,1012.82,38.2,0
"2022-02-04 23:10:18+00",11.6,12.6,,,-81,503,5,1012.43,38.1,0
"2022-02-04 23:15:18+00",9.5,10.5,,,-134,390,15,1012.84,38.1,0
"2022-02-04 23:20:18+00",8.9,9.9,,,-70,382,4,1012.62,38.1,0
"2022-02-04 23:25:18+00",9.6,10.6,,,-195,376,15,1012.88,38.1,0
"2022-02-04 23:30:18+00",10.0,12.0,,,-166,407,17,1012.83,38.1,0
"2022-02-04 23:35:18+00",9.8,11.8,,,-197,387,15,1012.95,37.9,0
"2022-02-04 23:40:18+00",11.2,12.2,,,-141,479,15,1012.68,37.8,0
"2022-02-04 23:45:18+00",11.3,13.3,,,-173,320,96,1013,37.7,0
"2022-02-04 23:50:18+00",12.3,13.3,,,-264,485,31,1012.87,37.6,0
"2022-02-04 23:55:18+00",12.4,14.4,,,-216,499,22,1012.77,37.7,0
